Location: Home
(42.5358°N, 72.7383°W)
Time: 12:40:37
(UTC-05:00)

Tiros 1 - Pass Details

Date: 03 December 2021
Orbit: 629 x 664 km, 48.4° (Epoch: 26 January)

Event Time Altitude Azimuth Distance (km) Brightness Sun altitude
Rises 19:54:09 0° 262° (W) 2,923 11.4 -39.1°
Reaches altitude 10° 19:56:31 10° 267° (W) 2,021 10.4 -39.5°
Enters shadow 19:56:55 12° 269° (W) 1,873 10.2 -39.6°
Maximum altitude 20:01:03 52° 344° (NNW) 803 - -40.3°
Drops below altitude 10° 20:05:40 10° 61° (ENE) 2,047 - -41.2°
Sets 20:08:05 0° 67° (ENE) 2,965 - -41.6°
